Location: Unspecified
(30.8697°N, 0.0000°E)
Time: 03:45:28
(UTC+00:00)

S-56A Canister/Altair - Visible Passes

Search period start: 04 April 2026 00:00
Search period end: 14 April 2026 00:00
Orbit: 632 x 2485 km, 38.9° (Epoch: 28 March)

Date Brightness Start Highest point End Pass type
(mag) Time Alt. Az. Time Alt. Az. Time Alt. Az.
6 Apr 11.2 04:46:19 10° S 04:55:47 26° SE 05:06:40 10° E visible
7 Apr 11.2 04:12:24 10° S 04:20:27 20° SE 04:29:42 10° E visible
8 Apr 11.3 03:39:02 10° SSE 03:45:13 16° SE 03:52:11 10° E visible
9 Apr 11.4 03:07:08 10° SE 03:10:04 11° ESE 03:13:12 10° ESE visible
9 Apr 10.6 05:02:22 10° SSW 05:13:30 48° SE 05:27:23 10° ENE visible
10 Apr 10.6 04:27:46 10° SSW 04:38:02 41° SE 04:51:06 10° ENE visible
11 Apr 10.7 03:53:21 10° SSW 04:02:41 34° SE 04:14:40 10° ENE visible
12 Apr 10.6 03:20:23 14° S 03:27:28 28° SE 03:38:03 10° ENE visible
13 Apr 10.6 02:47:38 16° SSE 02:52:21 22° SE 03:01:11 10° E visible
13 Apr 9.9 04:45:22 10° SW 04:56:10 69° SE 05:10:45 10° ENE visible
